Regional Weather Roundup
Issued by NWS

Home | Current Version | Previous Version | Text Only | Print | Product List | Glossary On
Versions: 1 2 3 4 5 6 7 8 9 10 11 12 13 14 15 16 17 18 19 20 21 22 23 24 25 26 27 28 29 30 31 32 33 34 35 36 37 38 39 40 41 42 43 44 45 46 47 48 49 50
000
ASUS43 KDTX 281201
RWRMI
MICHIGAN HOURLY REGIONAL WEATHER ROUNDUP
NATIONAL WEATHER SERVICE DETROIT/PONTIAC MI
700 AM EST SUN DEC 28 2014

NOTE: "FAIR" INDICATES FEW OR NO CLOUDS BELOW 12,000 FEET WITH NO
SIGNIFICANT WEATHER AND/OR OBSTRUCTION TO VISIBILITY.

MIZ047>049-052>055-059>063-066>070-074>076-081>083-281300-
SOUTHEAST LOWER MICHIGAN

CITY           SKY/WX    TMP DP  RH WIND       PRES   REMARKS
ADRIAN         CLOUDY    34  29  82 W7        30.08R WCI  28
6HR MIN TEMP:  34; 6HR MAX TEMP:  36;

ALMA           MOCLDY    32  28  85 W8        30.06R WCI  25
ANN ARBOR      CLOUDY    35  30  82 W8        30.05R WCI  29
BAD AXE        CLOUDY    32  29  86 W3        30.02R
CARO           LGT SNOW  33  30  90 W8        30.03R WCI  26
DETROIT CITY   CLOUDY    38  30  73 W5        30.05R WCI  34
6HR MIN TEMP:  38; 6HR MAX TEMP:  40;

DETROIT        CLOUDY    36  30  79 W7        30.06R WCI  30
6HR MIN TEMP:  36; 6HR MAX TEMP:  37;

FLINT          CLOUDY    36  30  79 W8        30.05R WCI  30
6HR MIN TEMP:  36; 6HR MAX TEMP:  38; 6HR PCP: TRACE;

GROSSE ILE     CLOUDY    37  30  75 W3        30.05R
HILLSDALE      CLOUDY    34  32  92 W6        30.06R WCI  28
HOWELL         CLOUDY    33  31  91 W6        30.05R WCI  28

CITY           SKY/WX    TMP DP  RH WIND       PRES   REMARKS
JACKSON        CLOUDY    33  30  88 NW7       30.06R WCI  27
6HR MIN TEMP:  33; 6HR MAX TEMP:  35; 6HR PCP: TRACE;

LAMBERTVILLE   CLOUDY    36  32  87 W5        30.08R WCI  32
LANSING        CLOUDY    32  29  88 W9        30.07R WCI  24
6HR MIN TEMP:  32; 6HR MAX TEMP:  35; 6HR PCP:  0.01;

LAPEER         CLOUDY    34  29  83 CALM      30.03R
MASON          CLOUDY    32  29  90 NW9       30.06R WCI  24
MONROE         CLOUDY    36  30  80 W5        30.05R WCI  32
MT. CLEMENS    CLOUDY    36  34  92 N5        30.03R WCI  32
6HR MIN TEMP:  36; 6HR MAX TEMP:  38;

PONTIAC        CLOUDY    34  30  85 W6        30.03R WCI  29
6HR MIN TEMP:  34; 6HR MAX TEMP:  36;

PORT HOPE        N/A     33  26  75 SW5       29.99R WCI  29
6HR MIN TEMP:  33; 6HR MAX TEMP:  36;

PORT HURON     CLOUDY    34  30  86 CALM      30.04R
TRI CITIES     CLOUDY    35  28  75 W15       30.05R WCI  25
6HR MIN TEMP:  34; 6HR MAX TEMP:  37; 6HR PCP: TRACE;

TROY           CLOUDY    38  31  78 W3        30.06R
SAGINAW HB     CLOUDY    34  32  93 W7        30.04R WCI  28
$$
MIZ043>046-050>051-056>058-064>065-071>073-077>080-281300-
SOUTHWEST LOWER MICHIGAN

CITY           SKY/WX    TMP DP  RH WIND       PRES   REMARKS
BATTLE CREEK   CLOUDY    34  26  72 W12       30.08R WCI  25
6HR MIN TEMP:  34; 6HR MAX TEMP:  35;

BENTON HARBOR  CLOUDY    31  23  72 W8        30.13R WCI  23
6HR MIN TEMP:  31; 6HR MAX TEMP:  35;

BIG RAPIDS     CLOUDY    29  25  83 W8        30.04R WCI  21
6HR MIN TEMP:  29; 6HR MAX TEMP:  33;

COLDWATER      CLOUDY    33  29  86 W9        30.08R WCI  25
6HR MIN TEMP:  33; 6HR MAX TEMP:  34;

FREMONT        PTSUNNY   28  22  78 W7        30.07R WCI  21
HOLLAND        MOCLDY    33  23  66 W6        30.11R WCI  28
6HR MIN TEMP:  33; 6HR MAX TEMP:  37; 6HR PCP: TRACE;

GRAND RAPIDS   CLOUDY    31  25  78 W9        30.07R WCI  23
6HR MIN TEMP:  31; 6HR MAX TEMP:  35; 6HR PCP:  0.01;

IONIA          CLOUDY    32  27  80 W7        30.06R WCI  26
KALAMAZOO      CLOUDY    33  25  72 NW13      30.10R WCI  24
6HR MIN TEMP:  33; 6HR MAX TEMP:  36;

MARSHALL       CLOUDY    32  29  89 W5        30.07R WCI  27
MOUNT PLEASANT MOCLDY    31  26  79 CALM      30.04R
6HR MIN TEMP:  31; 6HR MAX TEMP:  34;

MUSKEGON       MOCLDY    31  21  66 NW8       30.10R WCI  23
6HR MIN TEMP:  31; 6HR MAX TEMP:  36;

SOUTH HAVEN    CLOUDY    33  24  70 W5        30.11S WCI  28
$$
MIZ016>042-281300-
NORTHERN LOWER MICHIGAN

CITY           SKY/WX    TMP DP  RH WIND       PRES   REMARKS
ALPENA         MOCLDY    29  21  72 NW6       29.99R WCI  23
6HR MIN TEMP:  29; 6HR MAX TEMP:  31;

BEAVER ISLAND  CLEAR     25  19  78 W8        29.99R WCI  16
6HR MIN TEMP:  25; 6HR MAX TEMP:  31;

BELLAIRE       PTCLDY    29  19  68 W3        30.02R
6HR MIN TEMP:  29; 6HR MAX TEMP:  34;

CADILLAC       CLOUDY    26  20  79 W7        29.99R WCI  18
CHARLEVOIX     MOCLDY    28  20  73 W9G17     30.03R WCI  19
6HR MIN TEMP:  27; 6HR MAX TEMP:  32;

FRANKFORT      PTCLDY    27  19  71 W7        30.04S WCI  19
GAYLORD        CLOUDY    26  20  77 W10G17    29.96R WCI  16
6HR MIN TEMP:  26; 6HR MAX TEMP:  29;

GRAYLING       CLOUDY    28  21  74 W9G18     29.99R WCI  19
6HR MIN TEMP:  28; 6HR MAX TEMP:  31;

HARBOR SPRINGS PTCLDY    26  18  70 W7        29.99R WCI  19
HOUGHTON LAKE  CLOUDY    28  19  69 NW14G22   30.00R WCI  17
6HR MIN TEMP:  28; 6HR MAX TEMP:  31; 6HR PCP: TRACE;

MANISTEE       PTCLDY    27  18  69 W7        30.06R WCI  19
OSCODA         CLOUDY    31  28  90 SW5       29.99R WCI  26
PELLSTON       PTCLDY    25  17  72 W5        29.99R WCI  19
6HR MIN TEMP:  24; 6HR MAX TEMP:  31;

ROGERS CITY    CLOUDY    28  23  81 W6        29.99R WCI  22
TRAVERSE CITY  PTCLDY    28  19  69 SW5       30.03R WCI  23
6HR MIN TEMP:  27; 6HR MAX TEMP:  33; 6HR PCP:  0.01;

$$
MIZ007>008-015-281300-
EASTERN UPPER MICHIGAN

CITY           SKY/WX    TMP DP  RH WIND       PRES   REMARKS
KINROSS        CLOUDY    25  21  86 W7        29.94R WCI  17
6HR MIN TEMP:  25; 6HR MAX TEMP:  28;

MACKINAC ISLAN MOCLDY    26  20  76 W9        29.97R WCI  17
6HR MIN TEMP:  26; 6HR MAX TEMP:  31;

NEWBERRY       PTCLDY    16  14  91 SW9       29.95R WCI   5
6HR MIN TEMP:  16; 6HR MAX TEMP:  27;

S. S. MARIE    CLOUDY    26  19  74 SW10      29.92S WCI  16
6HR MIN TEMP:  26; 6HR MAX TEMP:  30; 6HR PCP: TRACE;

MUNISING         N/A     19  12  74 SW9       29.97R WCI   8
6HR MIN TEMP:  19; 6HR MAX TEMP:  25;

$$
MIZ004>006-011>014-085-281300-
CENTRAL UPPER MICHIGAN

CITY           SKY/WX    TMP DP  RH WIND       PRES   REMARKS
MANISTIQUE     CLEAR     18  15  89 W6        29.99R WCI   9
6HR MIN TEMP:  18; 6HR MAX TEMP:  26;

ESCANABA       CLEAR     16  10  79 W12       30.01R WCI   3
6HR MIN TEMP:  16; 6HR MAX TEMP:  25;

MENOMINEE      CLEAR     18  12  79 W5        30.05R WCI  11
6HR MIN TEMP:  18; 6HR MAX TEMP:  25;

SAWYER-GWINN   CLOUDY    12   9  85 W3        29.95R
$$
MIZ001>003-009>011-084-281300-
WESTERN UPPER MICHIGAN

CITY           SKY/WX    TMP DP  RH WIND       PRES   REMARKS
IRON MOUNTAIN    N/A     13   8  81 W7        29.98R WCI   3
6HR MIN TEMP:  10; 6HR MAX TEMP:  18;

HOUGHTON       LGT SNOW  20  14  77 NW14      29.94R WCI   7
6HR MIN TEMP:  20; 6HR MAX TEMP:  23; 6HR PCP: TRACE;

COPPER HARBOR    N/A     23  14  68 N18       29.96R WCI   9
6HR MIN TEMP:  23; 6HR MAX TEMP:  27;

IRONWOOD       CLOUDY    18  12  79 W9        29.98R WCI   6
6HR MIN TEMP:  16; 6HR MAX TEMP:  18;

$$

ABBREVIATIONS USED IN REMARKS
   TC - TEMPERATURE IN CELSIUS
  WCI - WIND CHILL INDEX
   HX - HEAT INDEX
  VSB - VISIBILITY




USA.gov is the U.S. government's official web portal to all federal, state and local government web resources and services.